White Mountain, AK

3:44 AM AKDT on August 19, 2017 (GMT -0800)
White Mountain

Weather History for PAWM - October, 2012

Change the Weather History Date:

Thursday, October 4, 2012

  Actual Average (PAOM) Record (PAOM)
Temperature  
Mean Temperature 44 °F -  
Max Temperature 46 °F 39 °F 54 °F (1979)
Min Temperature 42 °F 28 °F 12 °F (1919)
Degree Days  
Heating Degree Days 21    
Moisture  
Dew Point 42 °F    
Average Humidity 89    
Maximum Humidity 100    
Minimum Humidity 71    
Precipitation  
Precipitation 0.19 in - - ()
Sea Level Pressure  
Sea Level Pressure 29.57 in    
Wind  
Wind Speed 15 mph ()    
Max Wind Speed 22 mph    
Max Gust Speed 34 mph    
Visibility 8.6 miles    
Events Rain    
Averages and records for this station are not official NWS values.
T = Trace of Precipitation, MM = Missing Value Source: Averaged Metar Reports

Daily Weather History Graph

Daily Weather History Graph

Search for Another Location

Airport or City:

Trip Planner

Search our weather history database for the weather conditions in past years. The results will help you decide how hot, cold, wet, or windy it might be!

Date:

Astronomy

Oct. 04, 2012 Rise Set
Actual Time 9:14 AM AKDT 8:08 PM AKDT
Civil Twilight 8:25 AM AKDT 8:56 PM AKDT
Nautical Twilight 7:28 AM AKDT 9:53 PM AKDT
Astronomical Twilight 6:27 AM AKDT 10:53 PM AKDT
Moon 8:55 PM AKDT (10/4) 3:39 PM AKDT (10/4)
Length of Visible Light 12h 31m
Length of Day
10h 54m
Waning Gibbous, 81% of the Moon is Illuminated
Oct 4
Waning Gibbous
Oct 7
Last Quarter
Oct 15
New
Oct 21
First Quarter
Oct 29
Full

Hourly Weather History & Observations

Time (AKDT) Temp. Windchill Dew Point Humidity Pressure Visibility Wind Dir Wind Speed Gust Speed Precip Events Conditions
12:58 AM 46.9 °F - 37.9 °F 71% 29.64 in 10.0 mi East 15.0 mph 21.9 mph 0.00 in   Overcast
1:58 AM 46.9 °F - 37.9 °F 71% 29.60 in 10.0 mi ENE 16.1 mph 25.3 mph N/A   Overcast
2:58 AM 46.0 °F 39.0 °F 37.9 °F 73% 29.57 in 10.0 mi East 17.3 mph 25.3 mph N/A   Overcast
3:58 AM 44.1 °F 36.8 °F 41.0 °F 89% 29.55 in 8.0 mi East 16.1 mph 24.2 mph 0.00 in Rain Light Rain
4:58 AM 43.0 °F 35.7 °F 42.1 °F 97% 29.52 in 9.0 mi East 15.0 mph 23.0 mph 0.02 in   Overcast
5:58 AM 45.0 °F 37.1 °F 42.1 °F 90% 29.50 in 10.0 mi ESE 19.6 mph 27.6 mph 0.01 in Rain Light Rain
6:58 AM 45.0 °F 37.1 °F 43.0 °F 93% 29.49 in 6.0 mi ESE 19.6 mph 27.6 mph 0.02 in Rain Light Rain
7:58 AM 45.0 °F 38.2 °F 44.1 °F 97% 29.49 in 7.0 mi ESE 15.0 mph - 0.05 in Rain Light Rain
8:58 AM 45.0 °F 38.5 °F 44.1 °F 97% 29.50 in 10.0 mi ESE 13.8 mph - 0.01 in Rain Light Rain
9:22 AM 44.6 °F 37.4 °F 44.6 °F 100% 29.46 in 7.0 mi ESE 16.1 mph 23.0 mph 0.00 in Rain Light Rain
9:58 AM 46.0 °F 39.0 °F 44.1 °F 93% 29.51 in 9.0 mi SE 17.3 mph - 0.01 in   Overcast
10:26 AM 46.4 °F 39.5 °F 44.6 °F 93% 29.47 in 9.0 mi SE 17.3 mph 27.6 mph 0.00 in Rain Light Rain
10:58 AM 46.0 °F 38.8 °F 45.0 °F 96% 29.52 in 7.0 mi SE 18.4 mph 26.5 mph 0.03 in Rain Light Rain
11:58 AM 46.0 °F 39.6 °F 45.0 °F 96% 29.54 in 10.0 mi SE 15.0 mph - 0.00 in Rain Light Rain
12:21 PM 46.4 °F 39.8 °F 44.6 °F 93% 29.51 in 8.0 mi SE 16.1 mph 21.9 mph 0.00 in Rain Light Rain
12:38 PM 46.4 °F 40.1 °F 44.6 °F 93% 29.52 in 9.0 mi SE 15.0 mph 21.9 mph 0.00 in Rain Light Rain
12:43 PM 46.4 °F 39.8 °F 44.6 °F 93% 29.52 in 9.0 mi SSE 16.1 mph 23.0 mph 0.00 in Rain Light Rain
12:58 PM 46.9 °F - 45.0 °F 93% 29.57 in 9.0 mi SSE 15.0 mph - 0.00 in Rain Light Rain
1:58 PM 46.0 °F 39.6 °F 43.0 °F 89% 29.60 in 8.0 mi South 15.0 mph 20.7 mph 0.00 in   Overcast
2:10 PM 44.6 °F 37.8 °F 42.8 °F 93% 29.57 in 8.0 mi South 15.0 mph 24.2 mph N/A   Overcast
2:58 PM 46.0 °F 39.9 °F 42.1 °F 86% 29.61 in 8.0 mi South 13.8 mph - N/A   Overcast
3:58 PM 45.0 °F 39.7 °F 41.0 °F 86% 29.62 in 8.0 mi SE 10.4 mph - 0.00 in   Overcast
4:58 PM 45.0 °F 39.3 °F 41.0 °F 86% 29.63 in 7.0 mi SE 11.5 mph - 0.00 in   Overcast
5:58 PM 46.0 °F 40.6 °F 41.0 °F 83% 29.62 in 9.0 mi ESE 11.5 mph - 0.00 in   Overcast
6:58 PM 46.0 °F 39.3 °F 41.0 °F 83% 29.62 in 9.0 mi SE 16.1 mph 23.0 mph N/A   Mostly Cloudy
7:12 PM 42.8 °F 34.0 °F 41.0 °F 93% 29.59 in 4.0 mi South 20.7 mph 34.5 mph 0.04 in Rain Rain
7:22 PM 42.8 °F 34.8 °F 39.2 °F 87% 29.59 in 9.0 mi SSE 17.3 mph - 0.04 in Rain Light Rain
7:58 PM 43.0 °F 35.1 °F 39.9 °F 89% 29.63 in 9.0 mi SSE 17.3 mph - 0.04 in   Partly Cloudy
8:58 PM 43.0 °F 34.8 °F 39.9 °F 89% 29.64 in 10.0 mi SSE 18.4 mph 25.3 mph N/A   Overcast
9:58 PM 43.0 °F 35.4 °F 39.0 °F 86% 29.65 in 10.0 mi SE 16.1 mph 21.9 mph 0.00 in   Mostly Cloudy
10:58 PM 42.1 °F 33.9 °F 39.0 °F 89% 29.66 in 8.0 mi SE 17.3 mph 24.2 mph N/A   Scattered Clouds
11:58 PM 44.1 °F 35.4 °F 37.9 °F 79% 29.66 in 10.0 mi SSE 21.9 mph 32.2 mph N/A   Mostly Cloudy